Preview of NWS' New Version of Forecast
This preview is not operational and should not be used for support decisions.

Regional Weather Roundup (RWR)

Issued by National Weather Service (NWS)

                            
000
ASUS43 KDTX 220701
RWRMI 
MICHIGAN HOURLY REGIONAL WEATHER ROUNDUP
NATIONAL WEATHER SERVICE DETROIT/PONTIAC MI
200 AM EST FRI FEB 22 2019

NOTE: "FAIR" INDICATES FEW OR NO CLOUDS BELOW 12,000 FEET WITH NO
SIGNIFICANT WEATHER AND/OR OBSTRUCTION TO VISIBILITY.

MIZ047>049-052>055-059>063-066>070-074>076-081>083-220800-
SOUTHEAST LOWER MICHIGAN
  
CITY           SKY/WX    TMP DP  RH WIND       PRES   REMARKS
ADRIAN         FAIR      27  20  75 NW3       30.33                   
ALMA           FAIR      16  12  86 CALM      30.33R FOG              
ANN ARBOR      FAIR      25  19  78 W3        30.31R                  
BAD AXE        FAIR      22  19  90 CALM      30.30R                  
CARO           FAIR      19  17  92 CALM      30.31R                  
DETROIT CITY   FAIR      28  19  69 NW5       30.31R WCI  23          
DETROIT        MOCLDY    27  18  69 NW5       30.32R WCI  22          
FLINT          FAIR      23  17  78 W3        30.32R                  
GROSSE ILE     FAIR      28  22  77 N7        30.31R WCI  21          
HILLSDALE      FAIR      26  20  80 CALM      30.29R                  
HOWELL         FAIR      23  19  81 CALM      30.30R                  

CITY           SKY/WX    TMP DP  RH WIND       PRES   REMARKS
JACKSON        FAIR      23  20  88 CALM      30.31R                  
LAMBERTVILLE   FAIR      28  23  82 CALM      30.32R                  
LANSING        FAIR      20  17  88 W3        30.33R FOG              
LAPEER         FAIR      21  17  83 CALM      30.31R                  
MASON          FAIR      22  19  88 W3        30.32R                  
MONROE         FAIR      29  24  81 NW3       30.32R                  
MT. CLEMENS    FAIR      26  22  83 CALM      30.30R                  
PONTIAC        FAIR      23  18  81 W5        30.29R WCI  17          
PORT HOPE        N/A     25  17  72 W7        30.28R WCI  17          
PORT HURON     FAIR      25  21  86 CALM      30.32R                  
TRI CITIES     FAIR      22  15  75 W5        30.32R WCI  16          
MIDLAND        FAIR      19  16  86 CALM      30.32R                  
TROY           FAIR      28  17  65 W5        30.33R WCI  22          
SAGINAW HB     FAIR      21  18  86 SW3       30.32R                  
$$
MIZ043>046-050>051-056>058-064>065-071>073-077>080-220800-
SOUTHWEST LOWER MICHIGAN
  
CITY           SKY/WX    TMP DP  RH WIND       PRES   REMARKS
BATTLE CREEK   FAIR      24  20  84 CALM      30.32R                  
BENTON HARBOR  FAIR      26  20  77 CALM      30.35R                  
BIG RAPIDS     FAIR      15  13  92 CALM      30.31R FOG              
COLDWATER      FAIR      27  23  85 CALM      30.31R                  
FREMONT        FAIR      17  15  93 CALM      30.34R FOG              
HOLLAND        FAIR      20  16  84 CALM      30.35R FOG              
GRAND RAPIDS   FAIR      23  14  68 CALM      30.33R HAZE             
IONIA          FAIR      20  15  81 CALM      30.32R                  
KALAMAZOO      FAIR      24  19  81 CALM      30.33R                  
LUDINGTON      CLOUDY    16  14  90 CALM      30.34R                  
MARSHALL       FAIR      22  22 100 CALM      30.31R                  
MOUNT PLEASANT FAIR      17  12  81 CALM      30.32R HAZE             
MUSKEGON       FAIR      20  14  77 CALM      30.35R HAZE             
SOUTH HAVEN    FAIR      25  22  87 CALM      30.34R                  
$$
MIZ016>042-220800-
NORTHERN LOWER MICHIGAN
  
CITY           SKY/WX    TMP DP  RH WIND       PRES   REMARKS
ALPENA         FAIR      24  19  81 W3        30.29R                  
BEAVER ISLAND  CLOUDY    27  22  82 CALM      30.31R                  
BELLAIRE       CLOUDY    27  22  83 CALM      30.31R                  
CADILLAC       MOCLDY     5   1  84 CALM      30.27R                  
CHARLEVOIX     CLOUDY    27  24  89 CALM      30.34R                  
FRANKFORT      FAIR      19  16  90 CALM      30.33R FOG              
GAYLORD        CLOUDY    23  20  88 CALM      30.25R FOG              
GRAYLING       CLOUDY    23  19  87 CALM      30.27R                  
HARBOR SPRINGS CLOUDY    26  23  90 CALM      30.29S                  
HOUGHTON LAKE  CLOUDY    16  12  84 CALM      30.28R                  
MANISTEE       FAIR      10   8  92 CALM      30.33R FOG              
OSCODA         CLOUDY    24  17  77 W5        30.30R WCI  18          
PELLSTON       CLOUDY    25  21  85 CALM      30.30R                  
ROGERS CITY    CLOUDY    23  20  89 W3        30.30R                  
TRAVERSE CITY  CLOUDY    27  20  75 SW3       30.30R                  
$$
MIZ007>008-015-220800-
EASTERN UPPER MICHIGAN
  
CITY           SKY/WX    TMP DP  RH WIND       PRES   REMARKS
KINROSS        CLOUDY    25  22  88 W8        30.28R WCI  16          
MACKINAC ISLAN CLOUDY    27  22  82 NW7       30.28R WCI  19          
NEWBERRY       CLOUDY    25  23  91 MISG      30.27S                  
S. S. MARIE    CLOUDY    27  23  85 W3        30.27R                  
MUNISING         N/A     21  18  88 S3        30.29R                  
$$
MIZ004>006-011>014-085-220800-
CENTRAL UPPER MICHIGAN
  
CITY           SKY/WX    TMP DP  RH WIND       PRES   REMARKS
MANISTIQUE     CLOUDY    25  19  80 CALM      30.30R                  
ESCANABA       CLOUDY    25  20  81 W3        30.33R                  
MENOMINEE      FAIR      16  13  88 CALM      30.34                   
SAWYER-GWINN   CLOUDY    18  15  91 CALM      30.26R                  
$$
MIZ001>003-009>011-084-220800-
WESTERN UPPER MICHIGAN
  
CITY           SKY/WX    TMP DP  RH WIND       PRES   REMARKS
IRON MOUNTAIN  CLOUDY    23  18  81 W3        30.29R                  
HOUGHTON       CLOUDY    24  18  77 W8        30.24S WCI  15          
COPPER HARBOR    N/A     26  22  84 NW3       30.27R                  
IRONWOOD       CLOUDY    18  16  92 S5        30.29R WCI  11          
$$

ABBREVIATIONS USED IN REMARKS
   TC - TEMPERATURE IN CELSIUS
  WCI - WIND CHILL INDEX
   HX - HEAT INDEX
  VSB - VISIBILITY